Regional Weather Roundup
Issued by NWS Newport/Morehead, NC

Current Version | Previous Version | Text Only | Print | Product List | Glossary On
Versions: 1 2 3 4 5 6 7 8 9 10 11 12 13 14 15 16 17 18 19 20 21 22 23 24 25 26 27 28 29 30 31 32 33 34 35 36 37 38 39 40 41 42 43 44 45 46 47 48 49 50
000 ASUS42 KMHX 220925 RWRMHX WEATHER ROUNDUP FOR EASTERN NORTH CAROLINA NATIONAL WEATHER SERVICE NEWPORT/MOREHEAD CITY NC 400 AM EST WED NOV 22 2017 NOTE: "FAIR" INDICATES FEW OR NO CLOUDS BELOW 12,000 FEET WITH NO SIGNIFICANT WEATHER AND/OR OBSTRUCTIONS TO VISIBILITY NCZ015>017-031-032-045>047-102-103-221000- NORTH COAST CITY SKY/WX TMP DP RH WIND PRES REMARKS EDENTON DRIZZLE 61 59 94 CALM 29.93F ELIZABETH CITY LGT RAIN 58 58 100 S3 29.93F KITTY HAWK RAIN N/A N/A N/A CALM 29.93R MANTEO RAIN 60 60 99 CALM 29.94S $$ NCZ045>047-081-094-103-104-221000- CENTRAL COAST CITY SKY/WX TMP DP RH WIND PRES REMARKS FRISCO RAIN 62 61 96 VRB5 29.94R FOG $$ NCZ095-097-098-100-101-221000- SOUTHERN COAST CITY SKY/WX TMP DP RH WIND PRES REMARKS BEAUFORT RAIN 60 60 100 NE5 29.90F CEDAR ISLAND NOT AVBL JACKSONVILLE NOT AVBL PINEY ISLAND RAIN N/A N/A N/A E8 29.93F WILMINGTON FOG 61 60 97 W5 29.92R VSB 1/4 $$ NCZ011>013-027>030-043-044-078>080-089-090>093-098-221000- COASTAL PLAIN CITY SKY/WX TMP DP RH WIND PRES REMARKS AHOSKIE CLOUDY 50 49 97 CALM 29.93R CLINTON CLOUDY 55 55 100 CALM 29.93R ELIZABETHTOWN NOT AVBL GOLDSBORO MOCLDY 54 51 92 CALM 29.90F GREENVILLE CLOUDY 54 52 94 CALM 29.94S HAVELOCK NOT AVBL KENANSVILLE MOCLDY 54 54 100 CALM 29.92S FOG KINSTON MOCLDY 54 53 98 NW3 29.92S NEW BERN LGT RAIN 55 55 100 CALM 29.91F FOG RICHLANDS MOCLDY 56 56 100 CALM 29.91F FOG ROCKY MOUNT CLOUDY 51 51 100 CALM 29.92F WASHINGTON LGT RAIN 57 56 97 E3 29.92F WHITEVILLE CLOUDY 56 56 97 CALM 29.93S FOG $$ AMZ130-135-150-152-154-156-158-170-250-252-270-ANZ085-086-088-633-658-670-221000- MARINE OBSERVATIONS STATION/POSITION TIME TEMP WIND PRES WAVE SWELL AIR SEA DIR/SP/G HT/PER HT/PER (UTC) (F) (DEG/KT/KT) (MB) (FT/S) (FT/S) CHESAPEAKE LIGHT NOT AVBL 64 E VA BEACH 0850 64 63 130/ 8/ 10 1014.2 4/ 6 3/ 6 DUCK 0900 62 60 130/ 11/ 12 1013.2 2 E DUCK 0900 61 N/A 3/ 6 OREGON INLET 0900 60 54 360/ 3/ 4 1013.2 13E OREGON INLT 0848 65 N/A 5/ 6 5/ 6 HATTERAS CG 0900 62 59 240/ 4/ 9 1013.1 DIAMOND BUOY 0900 63 75 30/ 8/ 14 1013.8 CAPE LOOKOUT 0900 360/ 5/ 5 1013.4 BEAUFORT LAB 0900 60 59 60/ 5/ 6 1012.7 30 SE NEW RVR IN 0808 64 66 330/ 6/ 8 1013.9 30 SE NEW RVR IN 0830 66 N/A 5/ 6 27 SE WRIGHTSVLE 0808 65 68 40/ 10/ 14 1013.5 5 SE WRIGHTSVLE 0908 64 64 90/ 4/ 8 1012.6 225 S CAPE HAT 0850 71 76 130/ 10/ 17 1012.0 8/ 8 7/ 8 41 SE CHARLESTON 0900 67 73 310/ 16/ 19 1012.5 $$

USA.gov is the U.S. government's official web portal to all federal, state and local government web resources and services.